OpenBCM V1.13 (Linux)

Packet Radio Mailbox

DB0FHN

[JN59NK Nuernberg]

 Login: GUEST





  
CX2SA  > KEPS     25.09.15 00:35l 323 Lines 15604 Bytes #999 (0) @ WW
BID : ORB15267.N
Read: DL5MBW GUEST DK3UZ DK7NR DO4SMW
Subj: 2Line Orbital Elements 15267.AMSAT
Path: DB0FHN<OE2XZR<OE5XBL<F1OYP<F1OYP<IK6ZDE<IZ3LSV<IQ5KG<IK1NHL<CX2SA
Sent: 150924/2110Z @:CX2SA.SAL.URY.SOAM #:28220 [Salto] FBB7.00e $:ORB15267.N
From: CX2SA@CX2SA.SAL.URY.SOAM
To  : KEPS@AMSAT


HR AMSAT ORBITAL ELEMENTS FOR AMATEUR SATELLITES IN NASA FORMAT
FROM WA5QGD FORT WORTH,TX September 24, 2015
BID: ORB15267.N

DECODE 2-LINE ELSETS WITH THE FOLLOWING KEY:
1 AAAAAU 00  0  0 BBBBB.BBBBBBBB  .CCCCCCCC  00000-0  00000-0 0  DDDZ
2 AAAAA EEE.EEEE FFF.FFFF GGGGGGG HHH.HHHH III.IIII JJ.JJJJJJJJKKKKKZ
KEY: A-CATALOGNUM B-EPOCHTIME C-DECAY D-ELSETNUM E-INCLINATION F-RAAN
G-ECCENTRICITY H-ARGPERIGEE I-MNANOM J-MNMOTION K-ORBITNUM Z-CHECKSUM

TO ALL RADIO AMATEURS BT

FO-29
1 24278U 96046B   15267.16784994 -.00000041  00000-0 -68371-5 0  9994
2 24278  98.5534 222.6319 0350528 174.0656 258.9650 13.53056469943414
SO-33
1 25509U 98061B   15266.79163740  .00000485  00000-0  80742-4 0  9994
2 25509 031.4339 052.3842 0347850 217.9986 139.5615 14.30064553884077
RS-22
1 27939U 03042A   15267.31117577  .00000376  00000-0  76588-4 0  9996
2 27939  97.8533  64.8693 0014250  73.7315 286.5458 14.66154461640715
HO-68
1 36122U 09072B   15267.12682106 -.00000060  00000-0 -43517-4 0  9991
2 36122 100.1829 308.3587 0006959 249.4314 110.6054 13.16329526277479
AO-73
1 39444U 13066AE  15266.71117276  .00000927  00000-0  12426-3 0  9998
2 39444 097.7207 325.8178 0059893 173.0825 187.1228 14.80467244097401
EO-79
1 40025U 14033R   15267.31708696  .00000942  00000-0  11032-3 0  9998
2 40025  97.9416 167.6797 0011811 214.7700 145.2745 14.87375279 68527
XW-2A
1 40903U 15049E   15267.69630860  .00000005  00000-0  27792-6 0  9992
2 40903  97.4570 275.7668 0023936 286.3501  73.5631 15.16553106   759
XW-2F
1 40905U 15049G   15267.70248383  .00002003  00000-0  11678-3 0  9994
2 40905  97.4527 275.7558 0015245 231.2040 128.8341 15.11910592   722
XW-2C
1 40906U 15049H   15267.70177957  .00002347  00000-0  13602-3 0  9993
2 40906  97.4586 275.7612 0014757 234.6931 125.3428 15.12137473   775
LILACSAT-2
1 40908U 15049K   15267.70334671  .00001794  00000-0  10536-3 0  9991
2 40908  97.4656 275.7628 0015586 227.0777 132.9652 15.11633527   714
XW-2E
1 40909U 15049L   15267.70103898  .00003651  00000-0  21018-3 0  9998
2 40909  97.4582 275.7604 0014004 238.0036 122.0343 15.12380799   719
UO-11
1 14781U 84021B   15267.38853353  .00000388  00000-0  54670-4 0  9990
2 14781  97.7909 321.9745 0010039 105.0908 255.1417 14.82510941696721
AO-16
1 20439U 90005D   15267.39970520  .00000064  00000-0  39500-4 0  9999
2 20439  98.5455 202.1616 0009927 223.6255 248.5613 14.32570532340947
LO-19
1 20442U 90005G   15266.88158106  .00000052  00000-0  35147-4 0  9994
2 20442 098.5161 200.9084 0011032 212.1187 147.9326 14.32760644341014
AO-27
1 22825U 93061C   15266.86251777  .00000059  00000-0  40468-4 0  9991
2 22825 098.7188 217.0465 0008967 026.8224 356.7404 14.29904121146767
IO-26
1 22826U 93061D   15266.89260162  .00000053  00000-0  37614-4 0  9996
2 22826 098.7131 217.2319 0009350 018.4934 341.6586 14.30223117146943
GO-32
1 25397U 98043D   15266.92379814  .00000019  00000-0  27184-4 0  9999
2 25397 098.5296 214.3170 0002256 062.3482 338.4989 14.23560665893614
NO-44
1 26931U 01043C   15266.53541346  .00000046  00000-0  49673-4 0  9993
2 26931  67.0503 283.3971 0006269 275.8526  84.1860 14.30343318729864
SO-50
1 27607U 02058C   15266.49587027  .00000373  00000-0  73468-4 0  9994
2 27607  64.5538 258.5888 0083276 269.5062  89.6497 14.74849064685789
CO-55
1 27844U 03031E   15267.19587079  .00000147  00000-0  86425-4 0  9990
2 27844  98.6967 274.3167 0010086  21.4215 338.7383 14.21847371634503
CO-57
1 27848U 03031J   15266.96273411  .00000114  00000-0  71878-4 0  9990
2 27848 098.7065 274.0453 0010159 029.3653 350.8293 14.21488103634347
AO-51
1 28375U 04025K   15266.86388373  .00000113  00000-0  46407-4 0  9992
2 28375  98.2988 204.5047 0083478  32.3006 328.3256 14.41696574590704
CP3
1 31129U 07012N   15266.88569741  .00000662  00000-0  15169-3 0  9993
2 31129  97.9924 228.4319 0096761   7.0869  16.5931 14.55949198447483
CO-65
1 32785U 08021C   15267.23333817  .00000775  00000-0  92031-4 0  9995
2 32785  97.6393 307.1055 0014937  99.1121 321.6446 14.87071484400950
PRISM
1 33493U 09002B   15267.38265355  .00001877  00000-0  18293-3 0  9990
2 33493  98.2438 109.6265 0016607   8.7033 351.4498 14.93722286361387
SOHLA-1
1 33496U 09002E   15267.39065684  .00000215  00000-0  43073-4 0  9997
2 33496  98.2257  36.1954 0005845 197.8937 230.2832 14.71428040357763
TISAT-1
1 36799U 10035E   15267.34823324  .00001446  00000-0  16031-3 0  9992
2 36799  98.0201   8.9214 0011761 238.6969 162.9112 14.88854803281719
STUDSAT
1 36801U 10035G   15266.88469275  .00015911  00000-0  85597-3 0  9990
2 36801 098.0706 032.0733 0006284 158.7045 201.4448 15.14936908282773
ALMASAT-1
1 38078U 12006B   15267.39935264  .00028313  33220-5  47420-3 0  9999
2 38078  69.4531 349.3708 0453269 119.7926 244.9095 14.84623634189736
CUBEBUG-1
1 39153U 13018D   15267.24351499  .00000672  00000-0  97108-4 0  9996
2 39153  98.0138 351.3157 0015957 295.0183  64.9371 14.79406872130127
ESTCUBE-1
1 39161U 13021C   15267.36049843  .00000500  00000-0  88963-4 0  9998
2 39161  98.0686 349.4075 0010036   7.3236 352.8118 14.71305185127825
DUCHIFAT-1
1 40021U 14033M   15267.34719625  .00001464  00000-0  16406-3 0  9991
2 40021  97.9438 168.2154 0012396 214.9956 145.0446 14.88364452 68556
NANOSATCBR1
1 40024U 14033Q   15267.29934483  .00001221  00000-0  13937-3 0  9996
2 40024  97.9419 167.8651 0011641 214.0008 146.0463 14.87904787 68534
DTUSAT-2
1 40030U 14033W   15267.36733932  .00000956  00000-0  11292-3 0  9993
2 40030  97.9402 167.3957 0011381 207.1311 152.9311 14.87002478 68510
ANTELSAT
1 40034U 14033AA  15267.23157270  .00000656  00000-0  10737-3 0  9998
2 40034  97.9305 157.0389 0059877 161.1657 199.1786 14.72896660 67870
MET-2/21
1 22782U 93055A   15266.84651169  .00000016  00000-0  62977-6 0  9997
2 22782  82.5516 165.3910 0023491  46.3885 357.4045 13.83777550114244
OKEAN-4
1 23317U 94066A   15266.97017567  .00000527  00000-0  56140-4 0  9997
2 23317 082.5408 352.6309 0020110 006.9524 119.7739 14.86826362131988
NOAA-14
1 23455U 94089A   15267.32571727 -.00000010  00000-0  17620-4 0  9996
2 23455  98.7470 346.7142 0009989 152.4205 249.0960 14.14053041 69544
NOAA-15
1 25338U 98030A   15267.53599209  .00000082  00000-0  53323-4 0  9994
2 25338  98.7777 266.2631 0009615 237.1877 122.8376 14.25662208902994
RESURS
1 25394U 98043A   15266.96708706 -.00000031  00000-0  46434-5 0  9991
2 25394  98.4761 218.5370 0001705  31.0715   8.6788 14.24457279894346
FENGYUN1
1 25730U 99025A   15267.42681741  .00000613  00000-0  34832-3 0  9999
2 25730  98.9503 232.2990 0018923 222.0257 252.9134 14.13632652843074
OKEAN-0
1 25860U 99039A   15267.01205137  .00000313  00000-0  52830-4 0  9990
2 25860  98.1065 235.2932 0001583  69.5094 330.8698 14.76137097870566
NOAA-16
1 26536U 00055A   15267.22265847 -.00000007  00000-0  20102-4 0  9996
2 26536  98.9331 333.0604 0009730 316.6678  43.3728 14.13108848773644
NOAA-17
1 27453U 02032A   15267.51167438  .00000031  00000-0  30941-4 0  9999
2 27453  98.3503 248.6390 0010485 250.1285 109.8766 14.24899817688804
NOAA-18
1 28654U 05018A   15267.53499650  .00000060  00000-0  57961-4 0  9999
2 28654  99.1909 262.6344 0015047  45.0614 315.1775 14.12234751533097
NOAA-19
1 33591U 09005A   15267.44489252  .00000154  00000-0  10894-3 0  9999
2 33591  99.0000 217.6088 0012961 249.6947 110.2832 14.11979906341498
HUBBLE
1 20580U 90037B   15267.22041021  .00001385  00000-0  77133-4 0  9999
2 20580  28.4697 220.9373 0002833 216.4996 286.0323 15.07706144194779
ISS
1 25544U 98067A   15266.60387819  .00006763  00000-0  10931-3 0  9991
2 25544  51.6461 312.7088 0005285 310.9653 150.8427 15.54127306963358
CO-58
1 28895U 05043F   15266.75775392  .00000383  00000-0  83528-4 0  9993
2 28895 097.8223 089.3958 0016808 349.8575 010.2286 14.62900817527776
FALCON
1 30776U 07006E   15266.91648146  .00006103  00000-0  23652-3 0  9996
2 30776 035.4263 101.6492 0001133 006.8309 098.5749 15.25562673471382
MAST
1 31126U 07012K   15266.87614081  .00000416  00000-0  99366-4 0  9996
2 31126 097.9728 230.4910 0090682 348.9877 038.6976 14.56147137447796
CAPE1
1 31130U 07012P   15267.17212447  .00000646  00000-0  14928-3 0  9990
2 31130  97.9941 228.1488 0097490   8.2740 352.0038 14.55614861447289
COMPASS
1 32787U 08021E   15267.20052776  .00001559  00000-0  16259-3 0  9994
2 32787  97.6415 311.7995 0014605  85.5675 274.7212 14.91084495401261
AAUSAT2
1 32788U 08021F   15267.19105389  .00001529  00000-0  15533-3 0  9993
2 32788  97.6425 313.4744 0014012  82.3571 277.9239 14.92166153401364
DO-64
1 32789U 08021G   15266.88593740  .00002937  00000-0  23582-3 0  9998
2 32789 097.6590 325.6446 0012338 092.1797 320.7271 15.00777879401771
CO-66
1 32791U 08021J   15266.81318676  .00001066  00000-0  11862-3 0  9997
2 32791 097.6412 308.9693 0015382 093.2307 267.0671 14.89053593400914
RS-30
1 32953U 08025A   15267.31364251  .00000010  00000-0 -13620-7 0  9994
2 32953  82.4986 272.5935 0017705 221.0926 138.8820 12.43063713332925
METEOR-M
1 35865U 09049A   15267.21680471 -.00000008  00000-0  15161-4 0  9996
2 35865  98.4916 303.9674 0002621 162.0999 248.2560 14.22048409312282
RS-38
1 35869U 09049E   15267.08113057 -.00000022  00000-0  88081-5 0  9994
2 35869  98.4825 303.4177 0004414 172.7719 187.3536 14.22309236312316
JUGNU
1 37839U 11058B   15266.56946927  .00000371  00000-0  55991-4 0  9997
2 37839  19.9621 326.0839 0019169  50.9434  97.0146 14.12489287204146
SRMSAT
1 37841U 11058D   15266.65180394  .00000337  00000-0  40165-4 0  9997
2 37841 019.9730 354.2928 0011858 334.5966 175.4297 14.10497548203773
